Date,TemperatureHighF,TemperatureAvgF,TemperatureLowF,DewpointHighF,DewpointAvgF,DewpointLowF,HumidityHigh,HumidityAvg,HumidityLow,PressureMaxIn,PressureMinIn,WindSpeedMaxMPH,WindSpeedAvgMPH,GustSpeedMaxMPH,PrecipitationSumIn
2013-2-1,23.7,17.3,11.5,19.6,9.2,3.9,84,70,58,30.41,29.85,24,7,24,0.00
2013-2-2,24.5,18.4,10.3,22.0,13.1,4.2,91,80,69,30.39,30.04,21,5,21,0.00
2013-2-3,28.6,24.0,18.3,24.0,20.5,14.0,91,86,75,30.07,29.85,21,4,21,0.00
2013-2-4,28.5,22.6,17.9,26.2,17.6,11.9,93,81,63,30.14,29.91,18,4,20,0.00
2013-2-5,32.7,29.9,27.6,30.2,27.7,25.8,93,91,84,29.99,29.86,13,2,13,0.00
2013-2-6,32.5,27.7,16.2,27.2,22.7,13.8,94,82,61,30.39,29.98,14,3,14,0.00
2013-2-7,42.4,30.3,15.4,28.9,23.0,12.9,91,75,57,30.37,30.04,26,4,26,0.00
2013-2-8,40.6,33.9,26.3,36.8,29.1,21.8,94,82,72,30.15,29.82,26,6,26,0.00
2013-2-9,34.7,25.6,18.2,22.2,18.2,14.5,87,74,50,30.44,30.15,22,3,22,0.00
2013-2-10,50.4,33.0,15.9,23.4,18.3,12.5,91,60,30,30.42,30.04,20,3,21,0.00
2013-2-11,63.2,49.8,38.4,49.1,36.1,23.3,93,63,29,30.05,29.65,36,9,40,0.00
2013-2-12,43.7,36.5,25.8,29.0,25.8,22.4,87,66,52,30.08,29.92,27,5,27,0.00
2013-2-13,41.7,31.1,21.7,33.6,27.1,19.5,94,86,61,29.96,29.71,8,1,8,0.00
2013-2-14,42.7,35.4,28.7,34.4,29.5,25.6,91,80,63,30.00,29.88,20,5,22,0.00
2013-2-15,42.2,36.0,29.1,34.7,30.4,26.3,93,80,60,30.07,29.93,18,4,18,0.00
2013-2-16,31.0,25.6,17.9,26.3,20.0,14.9,92,80,62,30.07,29.95,11,2,11,0.00
2013-2-17,24.9,19.8,17.3,17.5,13.1,6.6,90,75,58,30.32,29.95,24,5,25,0.00
2013-2-18,48.1,28.5,6.8,31.1,15.4,3.3,88,60,36,30.39,29.96,16,1,16,0.00
2013-2-19,48.7,39.0,25.3,39.1,29.7,15.6,89,71,41,29.95,29.66,23,8,30,0.00
2013-2-20,25.7,21.0,18.9,19.3,14.1,10.1,86,75,59,30.26,29.94,29,7,29,0.00
2013-2-21,27.2,21.6,18.3,19.4,15.2,13.0,86,76,61,30.41,30.23,15,4,15,0.00
2013-2-22,34.7,30.4,19.0,29.2,23.3,14.1,85,75,58,30.35,30.05,26,5,26,0.00
2013-2-23,47.7,39.2,33.8,39.5,33.8,28.5,90,81,68,30.06,29.87,13,2,13,0.00
2013-2-24,35.5,30.8,27.6,32.6,24.7,21.1,89,78,66,30.18,29.86,15,3,15,0.00
2013-2-25,44.5,34.2,25.8,27.1,23.6,21.5,86,66,47,30.27,30.09,14,2,14,0.00
2013-2-26,39.9,37.8,35.9,35.5,28.0,21.8,89,68,54,30.11,29.58,31,6,31,0.50
2013-2-27,42.6,39.0,34.7,38.5,35.8,32.3,94,88,79,29.71,29.58,21,5,30,0.27
2013-2-28,34.7,33.3,32.1,32.7,31.1,29.6,94,92,88,29.82,29.65,19,5,19,0.16